User: anonymous   Login
Location: Rotheul
(50.2849°N, 11.2349°E)
Time: 19:43:48
(UTC+02:00)
Language:

ISS - Orbit

View from above orbital plane
View from above orbital plane
View from above satellite
View from above satellite

Ground track
Ground track

The orbit data is extracted from the following two-line orbital elements,

1 25544U 98067A   18145.43717720  .00016717  00000-0  10270-3 0  9030
2 25544  51.6382 132.1274 0003925 117.7767 242.3784 15.54095672 34979
Epoch (UTC): 25 May 2018 10:29:32
Eccentricity: 0.0003925
inclination: 51.6382°
perigee height: 402 km
apogee height: 407 km
right ascension of ascending node: 132.1274°
argument of perigee: 117.7767°
revolutions per day: 15.54095672
mean anomaly at epoch: 242.3784°
orbit number at epoch: 3497

The dashed part of the orbit path shows where the satellite is in the earth's shadow,  

DLR